User: anonymous   Login
Location: Caltech
(34.1382°N, 118.1253°W)
Time: 09:35:21
(UTC-07:00)
Language:

ADEOS II - Orbit

View from above orbital plane
View from above orbital plane
View from above satellite
View from above satellite

Ground track
Ground track

The orbit data is extracted from the following two-line orbital elements,

1 27597U 02056A   15090.86100583  .00000476  00000-0  21218-3 0  9993
2 27597 098.2844 088.3907 0001499 130.1297 290.8790 14.27042088640122
Epoch (UTC): 31 March 2015 20:39:50
Eccentricity: 0.0001499
inclination: 98.2844°
perigee height: 800 km
apogee height: 803 km
right ascension of ascending node: 88.3907°
argument of perigee: 130.1297°
revolutions per day: 14.27042088
mean anomaly at epoch: 290.8790°
orbit number at epoch: 64012

The dashed part of the orbit path shows where the satellite is in the earth's shadow,  

DLR